Home > Weather > Valladolid > Past weeks

Flag for Spain Weather for the Past 2 Weeks in Valladolid, Spain

Now
47 °F

Cool.


Feels Like: 44 °F
Forecast: 46 / 54 °F
Wind: 8 mph from Southwest

Location: Valladolid

Current Time: Feb 9, 2016 at 5:15:05 AM

Latest Report: Feb 9, 2016 at 3:00 AM


Visibility: 13 mi

Pressure: 30.16 "Hg (27.67 "Hg at 712m altitude)

Humidity: 89%

Dew point: 44 °F

Location of ValladolidLocation

Historic Weather in Valladolid — Graph

°F

Valladolid Temperature Yesterday

Maximum temperature yesterday: 49 °F (at 2:00 PM)
Minimum temperature yesterday: 43 °F (at 5:00 AM)
Average temperature yesterday: 47 °F

High & Low Weather Summary for the Past Weeks

 TemperatureHumidityPressure
High56 °F (Jan 25, 4:00 PM)100% (Jan 25, 8:00 AM)30.75 "Hg (Jan 25, 8:00 AM)
Low30 °F (Feb 4, 9:00 AM)57% (Feb 5, 5:00 PM)29.79 "Hg (Feb 6, 9:00 PM)
Average43 °F90%30.43 "Hg
* Reported Jan 25 5:00 AM — Feb 9 3:00 AM, Valladolid, Weather by CustomWeather, © 2016

Note: Actual official high and low records may vary slightly from our data, if they occured in-between our weather recording intervals... More about our weather records

Advertising

Valladolid Weather History for the Previous 24 Hours

 ConditionsComfort  
Time TempWeatherWind HumidityBarometerVisibility
3:00 AM
Tue, Feb 9
47 °FCool.8 mph89%30.16 "Hg12 mi
2:00 AM48 °FCool.7 mph89%30.19 "Hg12 mi
1:00 AM47 °FOvercast.7 mph93%30.22 "Hg6 mi
12:00 AM48 °FCool.5 mph90%30.23 "Hg12 mi
9:00 PM
Mon, Feb 8
48 °FCool.6 mph88%30.26 "Hg12 mi
8:00 PM48 °FCool.6 mph87%30.24 "Hg12 mi
7:00 PM49 °FOvercast.7 mph87%30.26 "Hg9 mi
6:00 PM49 °FCool.6 mph85%30.25 "Hg12 mi
5:00 PM49 °FCool.6 mph88%30.26 "Hg12 mi
4:00 PM49 °FOvercast.7 mph86%30.27 "Hg9 mi
3:00 PM48 °FDrizzle. Cloudy.6 mph90%30.27 "Hg11 mi
2:00 PM49 °FDrizzle. Cloudy.8 mph85%30.28 "Hg11 mi
1:00 PM48 °FDrizzle. Overcast.7 mph86%30.30 "Hg9 mi
12:00 PM48 °FCool.7 mph88%30.31 "Hg12 mi
11:00 AM46 °FCool.7 mph90%30.32 "Hg12 mi
10:00 AM44 °FOvercast.6 mph92%30.33 "Hg12 mi
9:00 AM44 °FQuite cool.5 mph94%30.30 "Hg12 mi
8:00 AM44 °FQuite cool.6 mph91%30.29 "Hg12 mi
7:00 AM44 °FOvercast.6 mph90%30.28 "Hg12 mi
6:00 AM44 °FDrizzle. Overcast.6 mph90%30.28 "Hg12 mi
5:00 AM43 °FQuite cool.6 mph93%30.26 "Hg12 mi
Weather by CustomWeather, © 2016

See weather overviewHow to use our weather pages